SCP
0 0 0 0 0 0 -0 -0 -0 -0 -0 -0 -0 -0 -0 -0 -0 -0 -0 0 0 0 0 0 0 0 0 0 0 -0 -0 -0 -0 0 -0 -0 -0 -0 0 -0 -0 0 -0 -0 -0
0 0 0 0 0 0 -0 -0 -0 -0 -0 -0 -0 -0 -0 -0 -0 0 0 0 0 0 0 0 0 0 0 -0 0 0 0 -0 -0 0 0 0 -0 -0 -0 -0 -0 -0 -0 -0 -0
0 0 0 0 0 0 0 -0 -0 -0 -0 -0 -0 -0 -0 -0 0 0 0 0 0 0 0 0 0 0 0 -0 0 0 0 0 0 0 0 0 -0 0 -0 -0 -0 -0 -0 -0 -0
0 0 0 0 0 0 0 0 -0 -0 -0 -0 -0 -0 -0 -0 0 0 0 0 0 0 0 0 0 0 0 0 -0 0 -0 0 0 -0 0 0 0 0 0 -0 -0 -0 -0 -0 -0
0 0 0 0 0 0 0 0 -0 -0 -0 -0 -0 -0 0 0 0 0 0 0 0 0 0 0 0 0 -0 0 -0 -0 -0 -0 -0 0 0 0 0 -0 -0 -0 -0 -0 -0 -0 -0
0 0 -0 -0 -0 0 0 0 -0 -0 -0 -0 -0 -0 0 0 0 0 0 0 0 0 0 0 0 0 0 -0 -0 -0 0 -0 0 0 0 -0 0 -0 0 -0 -0 -0 -0 -0 -0
0 0 -0 -0 -0 -0 -0 0 -0 -0 -0 -0 -0 -0 0 -0 0 0 0 0 0 0 0 0 0 0 -0 0 0 -0 -0 -0 0 0 0 -0 0 0 0 -0 -0 -0 -0 -0 -0
0 0 -0 -0 -0 -0 -0 -0 -0 0 0 0 0 -0 0 0 0 0 0 0 0 0 0 0 0 0 -0 0 0 0 -0 -0 0 0 0 0 0 0 0 -0 -0 -0 -0 -0 -0
0 0 0 -0 -0 -0 -0 -0 -0 0 0 0 0 0 -0 0 0 0 0 0 0 0 0 0 0 0 0 0 0 0 0 -0 0 0 0 0 0 -0 -0 -0 -0 -0 -0 -0 -0
0 -0 -0 -0 -0 -0 -0 -0 0 0 0 0 0 0 0 0 0 0 0 0 0 0 0 0 0 0 0 0 0 0 -0 0 -0 0 0 0 0 -0 -0 -0 -0 -0 -0 -0 -0
0 0 0 0 0 0 0 0 0 0 0 0 0 0 0 0 -0 0 0 0 0 0 0 0 0 0 0 0 0 0 0 0 0 0 0 -0 -0 -0 -0 0 0 -0 0 -0 -0
0 0 0 0 0 0 0 0 0 -0 0 0 0 0 -0 0 0 0 0 0 0 0 0 0 0 0 0 0 0 0 0 -0 -0 -0 0 0 -0 -0 -0 0 0 0 0 0 0
0 -0 0 0 0 0 0 0 0 0 0 -0 0 -0 0 0 0 0 0 -0 0 0 0 0 0 0 0 0 -0 0 0 0 -0 0 0 0 0 0 0 0 0 0 0 0 0
-0 -0 0 0 0 0 0 0 0 0 0 0 0 0 0 0 -0 0 -0 0 0 0 0 0 0 0 0 0 0 0 0 0 0 0 0 0 0 0 0 -0 -0 0 0 0 0
-0 -0 -0 0 0 0 0 0 0 0 0 -0 0 0 0 -0 0 0 0 0 0 0 0 0 0 -0 -0 0 0 0 0 -0 0 0 0 0 0 0 0 0 0 0 0 0 0
-0 -0 0 0 0 0 0 0 0 0 0 0 0 -0 -0 -0 0 -0 -0 0 0 0 0 0 0 0 0 -0 0 0 0 0 0 0 0 -0 0 0 0 0 0 0 0 -0 0
0 0 0 0 0 0 0 0 0 0 0 -0 -0 0 -0 -0 0 -0 -0 -0 -0 0 0 0 0 -0 0 0 0 0 0 0 0 0 0 0 0 0 0 0 0 0 0 0 0
-0 -0 0 0 0 0 0 0 0 0 -0 0 -0 0 -0 -0 -0 -0 0 -0 0 0 0 -0 -0 -0 0 -0 0 0 -0 0 0 -0 -0 0 0 0 0 0 0 0 0 0 0
-0 0 0 0 0 0 0 0 -0 0 0 0 0 0 -0 -0 -0 0 0 -0 -0 -0 0 -0 -0 0 0 -0 0 -0 0 0 0 0 0 0 0 0 0 0 0 0 0 0 0
0 0 0 0 0 0 0 0 -0 -0 -0 0 0 -0 -0 -0 0 0 -0 0 0 0 0 0 0 0 0 -0 0 0 0 0 0 0 -0 -0 0 0 0 0 0 0 0 0 0
0 0 0 0 0 0 0 0 -0 -0 0 0 0 0 0 -0 -0 0 -0 -0 -0 0 0 0 0 -0 0 0 -0 0 0 0 0 0 0 0 -0 -0 0 -0 -0 0 0 0 0
0 0 0 0 0 0 -0 0 0 -0 -0 0 0 0 -0 -0 -0 -0 -0 -0 -0 -0 -0 0 0 0 0 0 0 0 0 0 0 0 0 0 0 0 0 0 0 0 0 1 0
0 0 0 0 0 0 0 0 0 0 0 0 0 0 0 -0 0 0 0 -0 0 0 0 0 0 0 0 0 0 0 0 0 0 0 0 0 0 0 0 0 0 0 0 0 0
0 0 0 0 0 0 0 0 0 0 0 0 0 0 -0 0 0 0 0 0 0 0 0 0 0 0 0 0 0 0 0 0 0 0 0 0 0 0 -0 0 0 0 0 0 0
0 0 0 0 0 0 0 0 0 0 0 -0 -0 -0 -0 0 0 0 0 0 0 0 0 0 0 0 0 0 -0 0 0 0 0 0 0 0 -0 -0 -0 0 0 0 0 0 0
0 0 0 0 0 0 0 0 0 0 0 0 0 0 0 0 0 0 0 0 0 0 0 0 0 0 0 0 0 0 0 0 0 0 0 0 0 -0 0 0 0 0 0 0 0
0 0 0 0 0 0 0 0 0 -0 -0 -0 0 0 0 0 0 0 0 0 0 0 0 0 0 0 0 0 0 0 0 0 0 0 0 0 -0 0 0 0 0 0 0 0 0
Wind_Speed_500mb
9 11 12 12 12 12 12 13 13 15 17 19 22 25 30 32 29 28 26 14 18 23 32 33 34 32 24 15 23 37 7 5 11 13 7 40 20 25 17 47 40 16 67 68 73
12 12 14 15 15 15 15 16 16 17 18 19 21 23 29 33 34 28 18 14 21 25 29 32 40 45 25 11 23 12 10 14 13 11 10 34 50 39 22 47 26 53 62 72 77
15 14 15 17 17 18 18 19 18 18 18 19 21 22 27 30 35 14 16 16 20 20 26 32 36 29 12 6 6 7 10 13 22 23 37 36 39 24 39 30 66 75 81 77 74
17 16 17 17 19 19 20 20 20 19 19 19 20 22 25 23 7 3 3 17 16 19 27 30 33 39 8 5 12 8 20 22 26 43 28 6 30 32 25 38 67 84 89 83 75
21 19 18 19 19 20 20 21 20 20 20 21 20 21 22 16 30 6 11 15 16 21 26 32 44 44 7 2 7 7 15 38 46 59 48 50 33 24 37 48 64 71 86 81 71
25 21 19 18 19 20 20 20 20 20 21 21 21 22 20 16 22 16 20 15 19 23 30 38 42 47 14 12 9 22 15 57 47 37 49 48 47 37 40 58 62 63 76 74 71
28 26 21 19 19 20 20 19 18 19 20 21 21 23 26 43 13 15 18 20 21 26 34 33 36 34 18 9 20 22 36 25 29 29 25 53 23 32 59 63 59 56 63 67 64
30 29 24 19 18 19 18 18 18 16 18 19 19 24 25 27 27 36 19 15 12 18 26 27 30 43 8 24 17 12 25 12 11 21 26 13 12 33 62 55 49 56 60 64 73
31 31 27 20 18 18 17 17 16 15 17 17 16 15 26 15 26 35 23 15 11 15 22 32 40 25 22 7 11 7 10 15 11 20 15 7 12 43 62 56 49 53 56 57 66
32 32 28 21 17 16 16 15 14 15 16 16 19 14 20 18 20 49 35 20 20 29 36 21 18 7 11 10 7 3 9 9 15 17 6 11 18 31 53 55 53 58 62 59 76
32 33 29 20 16 14 14 11 10 4 13 21 13 23 37 17 11 23 20 35 31 28 9 29 6 10 19 11 12 20 9 8 12 20 11 27 21 32 45 47 44 56 54 57 67
33 33 28 19 14 13 14 11 5 6 18 28 43 53 52 47 22 29 30 23 10 11 5 10 9 20 17 13 14 8 21 11 4 24 10 19 28 32 39 45 61 63 56 54 52
33 33 27 16 11 12 17 18 15 28 8 26 42 45 43 11 23 32 40 42 8 7 10 10 22 11 12 18 4 10 9 15 20 9 4 22 2 19 22 27 44 65 70 56 54
35 32 23 11 7 9 4 9 6 5 8 14 16 21 30 23 14 23 36 28 8 17 11 12 24 11 12 21 9 13 10 5 6 10 9 11 9 13 15 19 30 54 50 60 43
35 30 19 13 6 14 10 9 7 1 6 8 10 9 25 24 7 22 33 29 20 15 13 19 9 9 18 26 5 22 13 10 1 7 5 2 9 12 24 22 34 23 42 59 46
37 26 16 17 21 7 3 4 11 10 10 6 18 13 11 16 19 29 34 41 25 6 6 18 21 13 18 31 15 7 2 15 11 7 7 10 11 10 11 23 27 8 19 39 33
35 21 16 19 15 14 5 4 9 6 12 9 12 12 12 12 8 11 13 12 12 5 10 15 15 12 12 6 12 9 13 7 9 9 13 4 7 10 3 9 36 40 42 44 42
30 18 20 19 23 14 9 9 6 9 13 6 10 12 15 10 12 14 14 13 11 11 7 3 15 3 4 16 16 8 17 12 11 7 8 7 10 7 11 10 16 44 66 39 33
22 18 21 17 33 17 8 4 13 14 6 14 9 11 8 10 10 13 19 20 17 16 16 7 13 16 11 9 20 15 3 12 9 4 6 7 11 13 13 10 18 23 5 14 30
18 19 16 25 40 22 7 11 12 7 12 14 6 9 16 12 13 9 17 17 18 24 24 17 8 10 10 13 10 7 5 5 7 2 3 6 7 9 11 21 22 34 30 29 53
12 10 12 29 40 12 7 13 15 20 23 9 11 10 21 17 20 16 22 17 38 17 30 13 8 12 13 5 7 12 9 10 10 10 10 4 11 13 5 6 46 36 32 32 56
5 3 35 40 10 7 5 7 13 26 55 17 13 21 17 20 16 22 28 24 54 48 13 10 11 4 7 7 5 12 8 10 10 13 4 9 9 13 11 19 31 35 29 46 32
8 5 44 42 6 6 12 13 15 30 28 12 11 22 16 15 13 14 12 20 29 14 19 12 5 6 17 12 4 10 5 8 7 3 7 9 9 10 9 32 33 34 42 44 45
2 6 13 43 22 7 4 18 14 28 26 32 16 9 4 13 10 13 15 4 37 23 22 25 9 16 13 12 0 5 4 5 14 5 2 9 9 2 8 18 21 21 13 38 30
1 3 6 5 12 13 9 13 29 18 17 7 8 3 9 8 7 11 8 12 18 23 10 11 10 7 10 8 6 4 3 9 9 11 10 7 12 14 20 17 32 22 18 28 29
8 8 10 11 26 12 12 14 23 16 11 12 14 13 21 14 6 7 3 10 3 14 11 9 2 6 9 7 12 3 8 7 3 13 5 11 7 10 18 22 30 22 17 15 6
11 7 7 7 11 9 5 16 17 20 7 14 6 4 18 8 24 31 32 16 10 8 5 8 12 8 5 7 8 11 8 9 4 4 18 10 10 14 7 21 41 31 23 27 37
Wind_Direction_500mb
298 285 281 282 280 280 283 288 295 301 306 307 308 310 311 310 307 294 267 245 289 311 312 308 319 334 339 234 210 189 116 168 173 133 179 135 124 146 134 140 144 164 146 144 158
309 285 281 283 284 284 285 285 289 295 299 302 304 307 310 313 312 278 205 278 294 302 299 312 328 336 324 261 201 125 111 203 196 136 138 150 133 159 153 147 137 123 145 149 156
322 297 280 281 283 282 280 280 283 287 291 297 302 307 311 318 320 284 213 295 280 290 294 307 321 335 304 279 93 128 157 126 130 132 121 135 141 136 131 147 146 145 150 156 158
331 310 290 278 278 280 280 281 282 284 287 292 299 304 308 312 289 225 320 335 294 277 289 313 327 333 282 14 105 105 155 129 125 115 97 89 121 146 153 156 156 158 162 160 171
339 323 304 289 281 277 277 279 282 284 287 291 296 299 308 286 257 239 291 317 293 277 294 312 310 306 260 114 296 187 167 131 130 128 132 125 129 118 118 145 154 156 164 172 180
343 332 314 297 286 279 275 275 279 282 285 288 293 294 293 270 250 272 262 294 290 301 301 308 302 318 102 271 138 199 130 137 141 135 130 115 125 125 147 147 163 162 171 179 180
342 337 324 303 288 281 278 275 274 275 280 285 291 292 277 254 226 241 252 282 286 285 296 313 308 328 349 308 286 188 112 115 138 139 122 113 116 145 163 159 165 176 172 179 187
342 338 329 308 290 282 280 277 271 268 272 280 289 292 267 271 260 250 246 258 259 279 285 293 313 316 346 317 318 156 123 138 236 159 160 108 170 168 168 165 176 180 179 178 183
339 337 331 312 292 280 278 274 268 260 262 271 282 278 268 261 230 216 226 267 291 261 271 284 297 304 326 57 10 8 179 136 176 249 136 128 172 180 175 171 180 187 188 189 190
337 336 331 313 292 279 274 271 266 261 263 268 252 294 254 285 211 213 223 261 271 290 305 315 301 29 354 75 269 173 233 166 172 196 160 156 187 173 181 172 184 192 194 189 193
334 333 330 313 291 277 269 269 282 269 277 235 252 234 282 314 251 216 215 228 249 287 291 313 35 264 257 190 238 219 202 219 192 176 132 176 170 179 187 182 176 188 193 191 192
331 331 327 310 288 273 257 231 174 6 297 281 258 263 270 272 295 263 222 207 216 234 12 354 278 247 248 263 285 296 247 244 314 163 141 174 179 187 192 184 182 183 185 175 179
330 328 324 306 283 261 255 270 263 298 281 281 248 245 251 250 243 261 196 207 198 222 251 178 251 303 284 315 332 258 213 211 188 159 19 116 0 191 212 178 181 186 188 177 180
328 326 318 294 266 237 55 72 210 268 30 274 187 237 236 242 283 230 205 194 219 211 235 233 265 238 247 266 249 299 277 337 115 111 200 165 225 237 177 185 189 179 198 184 199
327 322 304 240 205 187 3 26 300 107 354 227 181 217 199 188 204 220 212 208 215 233 107 247 264 243 219 233 204 247 241 237 89 118 93 296 86 246 130 194 204 188 197 192 189
326 315 283 244 222 176 189 43 142 45 261 263 153 180 124 202 247 185 205 218 244 226 241 240 263 188 224 246 201 256 231 42 50 76 359 240 154 289 178 184 199 161 167 203 191
322 304 261 233 203 198 185 48 55 162 316 198 181 140 165 208 237 166 189 224 192 104 297 318 280 266 190 198 339 95 54 1 358 0 228 236 93 231 297 280 181 179 182 181 162
315 292 258 225 180 191 205 59 210 254 259 263 139 141 178 168 228 188 142 206 248 108 67 219 315 250 257 172 200 213 155 157 202 204 257 8 203 249 169 240 178 175 178 171 175
314 294 268 197 186 184 161 136 213 219 319 355 67 147 263 212 163 148 175 194 221 164 170 189 270 284 228 174 133 266 192 190 121 123 77 296 294 305 158 261 109 101 134 269 229
329 307 268 188 179 176 92 229 240 218 18 12 338 197 205 227 158 147 173 215 221 207 175 231 275 245 304 47 14 150 176 28 10 138 349 277 277 233 311 120 72 106 62 179 205
345 324 144 166 166 165 204 226 280 291 336 338 292 258 240 207 182 196 198 248 203 221 164 162 131 290 52 44 159 6 10 39 118 135 161 195 265 215 87 57 118 130 135 157 198
339 2 165 159 127 200 220 238 302 301 299 274 248 249 226 205 176 198 206 203 205 212 170 188 140 120 175 191 328 113 154 108 104 297 91 122 280 55 122 88 76 125 143 103 162
342 297 179 178 152 255 274 272 257 276 283 300 283 293 262 205 190 170 188 265 160 130 173 177 40 42 353 6 19 72 66 135 122 94 19 139 249 55 52 77 91 112 139 114 107
11 13 169 215 231 174 306 288 266 256 259 269 281 272 43 33 32 163 153 20 105 109 122 92 122 144 177 210 312 23 40 112 111 83 272 219 296 356 244 127 136 103 143 114 124
184 276 41 284 286 257 190 269 290 308 316 298 22 314 186 66 57 12 19 15 35 11 66 96 142 127 113 124 122 233 299 287 115 194 170 225 200 202 208 160 163 139 131 101 118
31 30 332 282 275 258 204 243 258 304 331 356 108 317 80 82 136 87 252 60 280 348 62 12 176 90 30 33 25 2 284 274 258 103 62 158 232 193 107 129 169 174 176 150 157
348 315 276 305 330 352 261 248 208 192 152 123 236 44 55 117 116 111 94 126 167 139 89 88 134 96 238 17 7 9 243 212 190 199 154 168 202 136 118 160 173 167 161 171 170
Wind_Speed_850mb
9 11 12 12 12 12 12 13 13 15 17 19 22 25 30 32 29 28 26 14 18 23 32 33 34 32 24 15 23 37 7 5 11 13 7 40 20 25 17 47 40 16 67 68 73
12 12 14 15 15 15 15 16 16 17 18 19 21 23 29 33 34 28 18 14 21 25 29 32 40 45 25 11 23 12 10 14 13 11 10 34 50 39 22 47 26 53 62 72 77
15 14 15 17 17 18 18 19 18 18 18 19 21 22 27 30 35 14 16 16 20 20 26 32 36 29 12 6 6 7 10 13 22 23 37 36 39 24 39 30 66 75 81 77 74
17 16 17 17 19 19 20 20 20 19 19 19 20 22 25 23 7 3 3 17 16 19 27 30 33 39 8 5 12 8 20 22 26 43 28 6 30 32 25 38 67 84 89 83 75
21 19 18 19 19 20 20 21 20 20 20 21 20 21 22 16 30 6 11 15 16 21 26 32 44 44 7 2 7 7 15 38 46 59 48 50 33 24 37 48 64 71 86 81 71
25 21 19 18 19 20 20 20 20 20 21 21 21 22 20 16 22 16 20 15 19 23 30 38 42 47 14 12 9 22 15 57 47 37 49 48 47 37 40 58 62 63 76 74 71
28 26 21 19 19 20 20 19 18 19 20 21 21 23 26 43 13 15 18 20 21 26 34 33 36 34 18 9 20 22 36 25 29 29 25 53 23 32 59 63 59 56 63 67 64
30 29 24 19 18 19 18 18 18 16 18 19 19 24 25 27 27 36 19 15 12 18 26 27 30 43 8 24 17 12 25 12 11 21 26 13 12 33 62 55 49 56 60 64 73
31 31 27 20 18 18 17 17 16 15 17 17 16 15 26 15 26 35 23 15 11 15 22 32 40 25 22 7 11 7 10 15 11 20 15 7 12 43 62 56 49 53 56 57 66
32 32 28 21 17 16 16 15 14 15 16 16 19 14 20 18 20 49 35 20 20 29 36 21 18 7 11 10 7 3 9 9 15 17 6 11 18 31 53 55 53 58 62 59 76
32 33 29 20 16 14 14 11 10 4 13 21 13 23 37 17 11 23 20 35 31 28 9 29 6 10 19 11 12 20 9 8 12 20 11 27 21 32 45 47 44 56 54 57 67
33 33 28 19 14 13 14 11 5 6 18 28 43 53 52 47 22 29 30 23 10 11 5 10 9 20 17 13 14 8 21 11 4 24 10 19 28 32 39 45 61 63 56 54 52
33 33 27 16 11 12 17 18 15 28 8 26 42 45 43 11 23 32 40 42 8 7 10 10 22 11 12 18 4 10 9 15 20 9 4 22 2 19 22 27 44 65 70 56 54
35 32 23 11 7 9 4 9 6 5 8 14 16 21 30 23 14 23 36 28 8 17 11 12 24 11 12 21 9 13 10 5 6 10 9 11 9 13 15 19 30 54 50 60 43
35 30 19 13 6 14 10 9 7 1 6 8 10 9 25 24 7 22 33 29 20 15 13 19 9 9 18 26 5 22 13 10 1 7 5 2 9 12 24 22 34 23 42 59 46
37 26 16 17 21 7 3 4 11 10 10 6 18 13 11 16 19 29 34 41 25 6 6 18 21 13 18 31 15 7 2 15 11 7 7 10 11 10 11 23 27 8 19 39 33
35 21 16 19 15 14 5 4 9 6 12 9 12 12 12 12 8 11 13 12 12 5 10 15 15 12 12 6 12 9 13 7 9 9 13 4 7 10 3 9 36 40 42 44 42
30 18 20 19 23 14 9 9 6 9 13 6 10 12 15 10 12 14 14 13 11 11 7 3 15 3 4 16 16 8 17 12 11 7 8 7 10 7 11 10 16 44 66 39 33
22 18 21 17 33 17 8 4 13 14 6 14 9 11 8 10 10 13 19 20 17 16 16 7 13 16 11 9 20 15 3 12 9 4 6 7 11 13 13 10 18 23 5 14 30
18 19 16 25 40 22 7 11 12 7 12 14 6 9 16 12 13 9 17 17 18 24 24 17 8 10 10 13 10 7 5 5 7 2 3 6 7 9 11 21 22 34 30 29 53
12 10 12 29 40 12 7 13 15 20 23 9 11 10 21 17 20 16 22 17 38 17 30 13 8 12 13 5 7 12 9 10 10 10 10 4 11 13 5 6 46 36 32 32 56
5 3 35 40 10 7 5 7 13 26 55 17 13 21 17 20 16 22 28 24 54 48 13 10 11 4 7 7 5 12 8 10 10 13 4 9 9 13 11 19 31 35 29 46 32
8 5 44 42 6 6 12 13 15 30 28 12 11 22 16 15 13 14 12 20 29 14 19 12 5 6 17 12 4 10 5 8 7 3 7 9 9 10 9 32 33 34 42 44 45
2 6 13 43 22 7 4 18 14 28 26 32 16 9 4 13 10 13 15 4 37 23 22 25 9 16 13 12 0 5 4 5 14 5 2 9 9 2 8 18 21 21 13 38 30
1 3 6 5 12 13 9 13 29 18 17 7 8 3 9 8 7 11 8 12 18 23 10 11 10 7 10 8 6 4 3 9 9 11 10 7 12 14 20 17 32 22 18 28 29
8 8 10 11 26 12 12 14 23 16 11 12 14 13 21 14 6 7 3 10 3 14 11 9 2 6 9 7 12 3 8 7 3 13 5 11 7 10 18 22 30 22 17 15 6
11 7 7 7 11 9 5 16 17 20 7 14 6 4 18 8 24 31 32 16 10 8 5 8 12 8 5 7 8 11 8 9 4 4 18 10 10 14 7 21 41 31 23 27 37
Wind_Direction_850mb
298 285 281 282 280 280 283 288 295 301 306 307 308 310 311 310 307 294 267 245 289 311 312 308 319 334 339 234 210 189 116 168 173 133 179 135 124 146 134 140 144 164 146 144 158
309 285 281 283 284 284 285 285 289 295 299 302 304 307 310 313 312 278 205 278 294 302 299 312 328 336 324 261 201 125 111 203 196 136 138 150 133 159 153 147 137 123 145 149 156
322 297 280 281 283 282 280 280 283 287 291 297 302 307 311 318 320 284 213 295 280 290 294 307 321 335 304 279 93 128 157 126 130 132 121 135 141 136 131 147 146 145 150 156 158
331 310 290 278 278 280 280 281 282 284 287 292 299 304 308 312 289 225 320 335 294 277 289 313 327 333 282 14 105 105 155 129 125 115 97 89 121 146 153 156 156 158 162 160 171
339 323 304 289 281 277 277 279 282 284 287 291 296 299 308 286 257 239 291 317 293 277 294 312 310 306 260 114 296 187 167 131 130 128 132 125 129 118 118 145 154 156 164 172 180
343 332 314 297 286 279 275 275 279 282 285 288 293 294 293 270 250 272 262 294 290 301 301 308 302 318 102 271 138 199 130 137 141 135 130 115 125 125 147 147 163 162 171 179 180
342 337 324 303 288 281 278 275 274 275 280 285 291 292 277 254 226 241 252 282 286 285 296 313 308 328 349 308 286 188 112 115 138 139 122 113 116 145 163 159 165 176 172 179 187
342 338 329 308 290 282 280 277 271 268 272 280 289 292 267 271 260 250 246 258 259 279 285 293 313 316 346 317 318 156 123 138 236 159 160 108 170 168 168 165 176 180 179 178 183
339 337 331 312 292 280 278 274 268 260 262 271 282 278 268 261 230 216 226 267 291 261 271 284 297 304 326 57 10 8 179 136 176 249 136 128 172 180 175 171 180 187 188 189 190
337 336 331 313 292 279 274 271 266 261 263 268 252 294 254 285 211 213 223 261 271 290 305 315 301 29 354 75 269 173 233 166 172 196 160 156 187 173 181 172 184 192 194 189 193
334 333 330 313 291 277 269 269 282 269 277 235 252 234 282 314 251 216 215 228 249 287 291 313 35 264 257 190 238 219 202 219 192 176 132 176 170 179 187 182 176 188 193 191 192
331 331 327 310 288 273 257 231 174 6 297 281 258 263 270 272 295 263 222 207 216 234 12 354 278 247 248 263 285 296 247 244 314 163 141 174 179 187 192 184 182 183 185 175 179
330 328 324 306 283 261 255 270 263 298 281 281 248 245 251 250 243 261 196 207 198 222 251 178 251 303 284 315 332 258 213 211 188 159 19 116 0 191 212 178 181 186 188 177 180
328 326 318 294 266 237 55 72 210 268 30 274 187 237 236 242 283 230 205 194 219 211 235 233 265 238 247 266 249 299 277 337 115 111 200 165 225 237 177 185 189 179 198 184 199
327 322 304 240 205 187 3 26 300 107 354 227 181 217 199 188 204 220 212 208 215 233 107 247 264 243 219 233 204 247 241 237 89 118 93 296 86 246 130 194 204 188 197 192 189
326 315 283 244 222 176 189 43 142 45 261 263 153 180 124 202 247 185 205 218 244 226 241 240 263 188 224 246 201 256 231 42 50 76 359 240 154 289 178 184 199 161 167 203 191
322 304 261 233 203 198 185 48 55 162 316 198 181 140 165 208 237 166 189 224 192 104 297 318 280 266 190 198 339 95 54 1 358 0 228 236 93 231 297 280 181 179 182 181 162
315 292 258 225 180 191 205 59 210 254 259 263 139 141 178 168 228 188 142 206 248 108 67 219 315 250 257 172 200 213 155 157 202 204 257 8 203 249 169 240 178 175 178 171 175
314 294 268 197 186 184 161 136 213 219 319 355 67 147 263 212 163 148 175 194 221 164 170 189 270 284 228 174 133 266 192 190 121 123 77 296 294 305 158 261 109 101 134 269 229
329 307 268 188 179 176 92 229 240 218 18 12 338 197 205 227 158 147 173 215 221 207 175 231 275 245 304 47 14 150 176 28 10 138 349 277 277 233 311 120 72 106 62 179 205
345 324 144 166 166 165 204 226 280 291 336 338 292 258 240 207 182 196 198 248 203 221 164 162 131 290 52 44 159 6 10 39 118 135 161 195 265 215 87 57 118 130 135 157 198
339 2 165 159 127 200 220 238 302 301 299 274 248 249 226 205 176 198 206 203 205 212 170 188 140 120 175 191 328 113 154 108 104 297 91 122 280 55 122 88 76 125 143 103 162
342 297 179 178 152 255 274 272 257 276 283 300 283 293 262 205 190 170 188 265 160 130 173 177 40 42 353 6 19 72 66 135 122 94 19 139 249 55 52 77 91 112 139 114 107
11 13 169 215 231 174 306 288 266 256 259 269 281 272 43 33 32 163 153 20 105 109 122 92 122 144 177 210 312 23 40 112 111 83 272 219 296 356 244 127 136 103 143 114 124
184 276 41 284 286 257 190 269 290 308 316 298 22 314 186 66 57 12 19 15 35 11 66 96 142 127 113 124 122 233 299 287 115 194 170 225 200 202 208 160 163 139 131 101 118
31 30 332 282 275 258 204 243 258 304 331 356 108 317 80 82 136 87 252 60 280 348 62 12 176 90 30 33 25 2 284 274 258 103 62 158 232 193 107 129 169 174 176 150 157
348 315 276 305 330 352 261 248 208 192 152 123 236 44 55 117 116 111 94 126 167 139 89 88 134 96 238 17 7 9 243 212 190 199 154 168 202 136 118 160 173 167 161 171 170